Погода в Оренбурге

Погода в Оренбурге : погода сейчас, прогноз погоды и архив. Всё, что Вы хотите узнать о погоде в Оренбурге!

Хотите узнать прогноз погоды в Оренбурге? Тогда Вам сюда: Погода в Оренбурге

Поиск расширенной информации на нашем сайте:

Другие новости

Новости СМИ2

Главная страница сайта

Новости сайта

03.07.2017

Напоминаем, что на нашем специализированном сайте Метеоцентр.Азия вы можете получить высокодетализированные автоматические прогнозы погоды по пунктам России, СНГ и мира в авиационном формате (включающие направление и скорость ветра, видимость, явления погоды, количество и форму облачности, нижнюю и верхнюю границу облачности).

Рекомендуем: http://www.lan.by/ Бюро переводов деловые услуги город Мозырь.

Погода в Оренбурге - сегодня

Время (UTC), дата Ветер
(°,м/с) 
Видим.   Явления Облачность Т
(°С)
Тd
(°С)
f(%) Тe
(°С)
Pmin
(гПа)
dP
(гПа)
Po
(мм)
O2
(г/м3)
Тmin Tmax R s Состояние
почвы
00 16.09.17 тихо ()   20000 м    ясно 
+10.6 +3.8 63 +11  1016.5  0.6  752  291           
03 16.09.17 090 (В) 20000 м    ясно 
+11.3 +4.1 61 +12  1017.5  752  291  +10        сухая 
06 16.09.17 280 (З) 20000 м    ясно 
+22.2 +7.6 39 +22  1017.3  0.4  753  279           
09 16.09.17 290 (З) 20000 м    ясно 
+28.8 +10.1 31 +30  1016.7  -0.4  752  273           
12 16.09.17 280 (З) 20000 м    ясно 
+27.8 +10.3 34 +29  1016.5  -0.2  752  273           
18 16.09.17 280 (З) 20000 м    1/0 верхняя 
[Ci fib]
+16.2 +7.3 56 +17  1018  0.7  753  285           
21 16.09.17 190 (Ю) 20000 м    ясно 
+14.7 +6.3 57 +15  1018.2  0.2  753  287           
00 17.09.17 250 (З) 20000 м    3/0 верхняя 
[Ci fib]
+11.7 +6.1 68 +11  1019  0.7  754  290           
03 17.09.17 260 (З) 20000 м    8/0 средняя, верхняя 
[Ac trans|Ci fib]
+11.6 +7.3 75 +13  1020.4  1.3  755  290  +10.8        сухая 
06 17.09.17 330 (СЗ) 20000 м    8/0 верхняя 
[Ci fib]
+20.8 +9.3 48 +21  1020.9  0.9  755  281           
09 17.09.17 340 (С) 20000 м    6/0 верхняя 
[Ci fib]
+24.1 +7.2 34 +24  1020.5  -0.2  755  278           
12 17.09.17 340 (С) 20000 м    6/0 верхняя 
[Ci]
+24.4 +5.8 30 +24  1019.7  -0.8  755  278           
18 17.09.17 290 (З) 20000 м    ясно 
+14.3 +4.5 52 +16  1021.1  0.6  755  288           
21 17.09.17 260 (З) 20000 м    ясно 
+11.7 +4.4 61 +13  1021.5  0.3  755  291           
00 18.09.17 240 (ЮЗ) 20000 м    ясно 
+7.6 +3.2 74 +9  1022.6  0.9  756  296           
03 18.09.17 тихо ()   20000 м    3/0 верхняя 
[Ci fib]
+8.3 +3.6 72 +8  1023.1  0.5  756  295  +7.2        сухая 
06 18.09.17 320 (СЗ) 20000 м    6/0 верхняя 
[Ci fib]
+18 +6.3 46 +19  1023.4  0.8  757  285           
09 18.09.17 350 (С) 20000 м    6/0 верхняя 
[Ci fib]
+21.8 +6.8 38 +22  1022.4  -0.8  756  281           
12 18.09.17 360 (С) 20000 м    6/0 верхняя 
[Ci fib]
+23.1 +5.8 33 +23  1021.3  -1  756  280           
18 18.09.17 110 (В) 20000 м    ясно 
+15 +2.4 43 +16  1022.1  0.4  756  288           
21 18.09.17 100 (В) 20000 м    3/0 верхняя 
[Ci fib]
+12.5 +4.5 58 +14  1022.3  0.1  756  291           
00 19.09.17 090 (В) 20000 м    3/0 верхняя 
[Ci fib]
+10.5 +4.1 65 +11  1022.7  0.3  756  293           
03 19.09.17 090 (В) 20000 м    9/0 верхняя 
[Ci fib]
+10.1 +3.9 65 +11  1023.4  0.6  757  293  +9.5        сухая 
06 19.09.17 200 (Ю) 20000 м    9/0 верхняя 
[Ci fib]
+23.6 +7.1 35 +24  1023.1  0.4  757  280           
09 19.09.17 200 (Ю) 20000 м    9/0 верхняя 
[Ci fib]
+29 +7 25 +29  1021.7  -1.2  756  274           
Время (UTC), дата Ветер
(°,м/с) 
Видим.   Явления Облачность Т
(°С)
Тd
(°С)
f(%) Тe
(°С)
Pmin
(гПа)
dP
(гПа)
Po
(мм)
O2
(г/м3)
Тmin Tmax R s Состояние
почвы

Для получения пояснительной информации подведите курсор к названию столбца.

ПОГОДА в Оренбурге - архив

Всё, что Вы хотите узнать о погоде в Оренбурге - удобно и подробно!

Выберите нужную дату (начиная с 1 января 2015* года) и нажмите кнопку "Найти".
Будут отображены архивные сводки погоды по пункту Оренбург, начиная с указанной даты.


Отображать данные в формате CSV (для использования в таблицах Excel)


Внимание! Наш архив погоды предназначен исключительно для личного некоммерческого использования в познавательных целях. Если Вам необходимы официальные справки о состоянии погоды (для производственных, юридических, коммерческих и т.п. целей), обращайтесь в органы Росгидромета.

*Примечание: данная дата относится к архиву по метеостанциям СССР (Россия, СНГ, Балтия).
Архив по метеостанциям Зарубежной Европы и Азии (кроме Китая) хранится 10 дней, по другим регионам земного шара (Китай, Африка, Америка, Австралия, Океания) - 1 день.

Оренбург - район местоположения метеостанции


Название, широта, долгота, высота метеостанции:
Оренбург (город) 51.7°ш. 55.1°д. 117 м над ур. моря [Российская Федерация]

Дополнительная информация

В oтличие oт бoльшинства пoгoдных сайтoв мы публикуем пoдрoбную метеoинфoрмацию в детальнoм прoфессиoнальнoм фoрмате.

Характеристики температуры и влажнoсти вoздуха измеряются на высoте 2 м в тени вдали oт зданий и деревьев.
Скoрoсть ветра измеряется на высoте 10 м (на урoвне рoста челoвека скoрoсть ветра ниже в 1.5-2 раза). Если метеoстанция нахoдится в гoрoде или в лесу, тo скoрoсть ветра занижена на 2-4 м/с пo сравнению с oткрытым местoм. Скoрoсть ветра над акватoриями крупных рек и oзёр, а также на вершинах хoлмoв на 2-5 м/с выше, чем в oбычных услoвиях.
Атмoсфернoе давление в разных тoчках местнoсти мoжет значительнo oтличаться oт давления на метеoстанции, в зависимoсти oт услoвий рельефа (при пoдъёме на 10 м давление пoнижается примернo на 1 мм рт.ст.).